Le nostre stazioni meteo in Italia

Pubblicità
Il mio iltempo24.it
Desenzano, Italia (16089): Temperatura & dewpoint: 14.10.2017 09:00:00 - 20.10.2017 09:00:00 (CEST)Desenzano, Italia (16089): velocità del vento: 14.10.2017 09:00:00 - 20.10.2017 09:00:00 (CEST)Desenzano, Italia (16089): direzione del vento: 14.10.2017 09:00:00 - 20.10.2017 09:00:00 (CEST)Desenzano, Italia (16089): reduced air pressure: 14.10.2017 09:00:00 - 20.10.2017 09:00:00 (CEST)Desenzano, Italia (16089): precipitazioni: 14.10.2017 09:00:00 - 20.10.2017 09:00:00 (CEST)
Data & Tempo tt [°C] td [°C] ff [km/h] ff [kn] dd ppp [hPa] rr [mm]
20.10.2017 09:00:00 - - - - - - -
20.10.2017 08:00:00 - - - - - - -
20.10.2017 07:00:00 15,1 14,4 2 1 SSO 1019,3 -
20.10.2017 06:00:00 15,0 14,5 0 0 N 1019,3 -
20.10.2017 05:00:00 15,1 14,6 4 2 S 1019,3 -
20.10.2017 04:00:00 15,2 14,8 2 1 S 1019,1 -
20.10.2017 03:00:00 15,1 14,9 4 2 SSO 1019,5 -
20.10.2017 02:00:00 14,6 14,5 2 1 S 1019,4 0,0
20.10.2017 01:00:00 14,0 13,6 4 2 S 1019,4 -
20.10.2017 00:00:00 13,8 12,7 0 0 N 1019,5 -
19.10.2017 23:00:00 14,9 13,5 0 0 N 1019,2 -
19.10.2017 22:00:00 15,3 14,1 0 0 N 1018,9 -
19.10.2017 21:00:00 15,1 13,6 0 0 N 1018,9 -
19.10.2017 20:00:00 15,3 12,9 0 0 N 1018,9 0,0
19.10.2017 19:00:00 16,3 13,3 0 0 N 1018,5 -
19.10.2017 18:00:00 17,4 14,0 4 2 E 1018,0 -
19.10.2017 17:00:00 18,2 14,6 5 3 E 1017,8 -
19.10.2017 16:00:00 18,7 14,9 5 3 E 1018,1 -
19.10.2017 15:00:00 19,2 15,8 5 3 E 1018,3 -
19.10.2017 14:00:00 18,5 15,5 4 2 ENE 1018,6 0,0
19.10.2017 13:00:00 16,5 15,8 8 4 ENE 1019,3 -
19.10.2017 12:00:00 14,9 14,8 2 1 ENE 1019,8 -
19.10.2017 11:00:00 13,9 13,8 0 0 N 1020,0 -
19.10.2017 10:00:00 13,0 12,9 0 0 N 1019,9 -
19.10.2017 09:00:00 12,5 12,5 0 0 N 1019,5 -
19.10.2017 08:00:00 12,0 12,0 0 0 N 1018,6 0,0
19.10.2017 07:00:00 11,5 11,5 2 1 SE 1018,7 -
19.10.2017 06:00:00 11,5 11,5 5 3 SSE 1018,7 -
19.10.2017 05:00:00 13,0 12,9 5 3 S 1018,4 -
19.10.2017 04:00:00 13,4 13,3 4 2 S 1018,5 -
19.10.2017 03:00:00 13,1 13,0 4 2 S 1019,0 -
19.10.2017 02:00:00 13,7 13,5 2 1 SSO 1019,1 0,0
19.10.2017 01:00:00 14,0 13,8 2 1 S 1019,3 -
19.10.2017 00:00:00 14,3 13,6 2 1 S 1019,4 -
18.10.2017 23:00:00 15,2 14,2 0 0 N 1019,2 -
18.10.2017 22:00:00 15,7 13,8 2 1 ENE 1019,0 -
18.10.2017 21:00:00 16,5 13,1 0 0 N 1018,8 -
18.10.2017 20:00:00 18,1 13,5 0 0 N 1018,4 0,0
18.10.2017 19:00:00 20,0 14,1 2 1 SSE 1017,6 -
18.10.2017 18:00:00 22,3 15,1 2 1 SSE 1017,1 -
18.10.2017 17:00:00 22,7 14,7 4 2 S 1017,1 -
18.10.2017 16:00:00 22,2 15,9 2 1 ESE 1017,5 -
18.10.2017 15:00:00 21,5 16,8 5 3 NE 1018,0 -
18.10.2017 14:00:00 20,2 14,2 8 4 NNE 1018,9 0,0
18.10.2017 13:00:00 19,6 13,0 4 2 NE 1019,6 -
18.10.2017 12:00:00 18,8 13,1 8 4 NE 1020,1 -
18.10.2017 11:00:00 18,3 13,9 8 4 NNO 1020,3 -
18.10.2017 10:00:00 16,2 14,7 5 3 NO 1020,6 -
18.10.2017 09:00:00 13,0 12,0 0 0 N 1020,6 -
18.10.2017 08:00:00 12,0 10,4 0 0 N 1020,2 0,0
18.10.2017 07:00:00 12,2 10,9 2 1 O 1020,4 -
18.10.2017 06:00:00 12,3 10,9 0 0 N 1020,7 -
18.10.2017 05:00:00 12,8 11,5 0 0 N 1020,9 -
18.10.2017 04:00:00 13,1 11,8 0 0 N 1021,3 -
18.10.2017 03:00:00 13,2 11,6 0 0 N 1021,8 -
18.10.2017 02:00:00 13,4 11,6 0 0 N 1022,1 0,0
18.10.2017 01:00:00 13,8 11,8 0 0 N 1022,2 -
18.10.2017 00:00:00 14,3 12,3 0 0 N 1022,6 -
17.10.2017 23:00:00 14,8 12,9 0 0 N 1022,9 -
17.10.2017 22:00:00 15,4 13,5 0 0 N 1023,0 -
17.10.2017 21:00:00 15,9 13,7 0 0 N 1023,0 -
17.10.2017 20:00:00 17,0 14,9 0 0 N 1022,8 0,0
17.10.2017 19:00:00 18,7 15,7 0 0 N 1022,6 -
17.10.2017 18:00:00 20,5 16,3 0 0 N 1022,7 -
17.10.2017 17:00:00 22,2 17,1 0 0 N 1022,9 -
17.10.2017 16:00:00 22,2 15,2 0 0 N 1023,2 -
17.10.2017 15:00:00 22,1 14,4 0 0 N 1023,8 -
17.10.2017 14:00:00 23,6 15,3 0 0 N 1024,6 0,0
17.10.2017 13:00:00 21,3 14,1 5 3 NNE 1025,4 -
17.10.2017 12:00:00 20,5 13,1 8 4 NNE 1026,0 -
17.10.2017 11:00:00 20,0 13,6 11 6 N 1026,1 -
17.10.2017 10:00:00 19,2 14,2 11 6 N 1026,2 -
17.10.2017 09:00:00 18,6 13,4 15 8 N 1026,1 -
17.10.2017 08:00:00 18,6 14,8 9 5 NNE 1025,6 0,0
17.10.2017 07:00:00 17,5 14,9 11 6 ONO 1025,6 -
17.10.2017 06:00:00 13,5 12,0 2 1 O 1025,8 -
17.10.2017 05:00:00 13,7 12,2 0 0 N 1025,9 -
17.10.2017 04:00:00 13,8 12,3 0 0 N 1026,1 -
17.10.2017 03:00:00 13,9 12,9 0 0 N 1026,6 -
17.10.2017 02:00:00 14,3 13,3 0 0 N 1026,8 0,0
17.10.2017 01:00:00 14,8 13,6 0 0 N 1026,9 -
17.10.2017 00:00:00 15,3 13,9 0 0 N 1027,0 -
16.10.2017 23:00:00 15,7 14,2 0 0 N 1026,9 -
16.10.2017 22:00:00 16,5 14,6 0 0 N 1026,5 -
16.10.2017 21:00:00 16,9 13,9 0 0 N 1026,5 -
16.10.2017 20:00:00 17,8 14,8 0 0 N 1026,3 0,0
16.10.2017 19:00:00 19,9 17,0 0 0 N 1025,9 -
16.10.2017 18:00:00 22,0 19,1 0 0 N 1025,8 -
16.10.2017 17:00:00 23,2 18,2 0 0 N 1026,0 -
16.10.2017 16:00:00 23,6 18,4 4 2 ENE 1026,1 -
16.10.2017 15:00:00 24,0 18,3 4 2 NE 1026,4 -
16.10.2017 14:00:00 23,1 17,9 0 0 N 1027,0 0,0
16.10.2017 13:00:00 22,0 15,5 0 0 N 1027,6 -
16.10.2017 12:00:00 21,6 16,5 0 0 N 1027,8 -
16.10.2017 11:00:00 20,7 16,2 0 0 N 1027,8 -
16.10.2017 10:00:00 18,9 17,2 0 0 N 1028,0 -
16.10.2017 09:00:00 15,3 14,4 0 0 N 1027,9 -
16.10.2017 08:00:00 14,4 12,6 0 0 N 1027,4 0,0
16.10.2017 07:00:00 16,1 15,1 4 2 O 1027,2 -
16.10.2017 06:00:00 15,4 13,2 2 1 OSO 1027,4 -
16.10.2017 05:00:00 15,7 15,6 8 4 NO 1027,6 -
16.10.2017 04:00:00 14,3 13,1 2 1 NNE 1027,6 -
16.10.2017 03:00:00 14,8 13,8 0 0 N 1028,1 -
16.10.2017 02:00:00 15,0 13,6 0 0 N 1028,1 0,0
16.10.2017 01:00:00 15,7 14,0 0 0 N 1028,1 -
16.10.2017 00:00:00 15,8 13,9 0 0 N 1028,0 -
15.10.2017 23:00:00 16,0 13,9 0 0 N 1028,0 -
15.10.2017 22:00:00 16,5 14,1 0 0 N 1027,6 -
15.10.2017 21:00:00 17,1 13,5 0 0 N 1027,4 -
15.10.2017 20:00:00 18,0 13,8 0 0 N 1027,2 0,0
15.10.2017 19:00:00 20,0 15,1 0 0 N 1026,7 -
15.10.2017 18:00:00 21,7 15,7 0 0 N 1026,4 -
15.10.2017 17:00:00 22,7 18,8 4 2 ONO 1026,6 -
15.10.2017 16:00:00 22,7 18,6 8 4 NE 1026,8 -
15.10.2017 15:00:00 22,9 19,0 2 1 NE 1027,2 -
15.10.2017 14:00:00 22,1 16,5 4 2 NNE 1027,9 0,0
15.10.2017 13:00:00 21,8 15,6 2 1 N 1028,5 -
15.10.2017 12:00:00 20,6 15,3 2 1 NE 1029,2 -
15.10.2017 11:00:00 20,1 16,7 0 0 N 1029,2 -
15.10.2017 10:00:00 18,1 17,2 4 2 NO 1029,1 -
15.10.2017 09:00:00 14,7 14,6 0 0 N 1028,9 -
15.10.2017 08:00:00 13,2 12,2 0 0 N 1028,7 0,0
15.10.2017 07:00:00 13,6 12,8 0 0 N 1028,4 -
15.10.2017 06:00:00 14,0 13,5 0 0 N 1028,4 -
15.10.2017 05:00:00 14,4 14,2 0 0 N 1028,2 -
15.10.2017 04:00:00 14,5 14,3 0 0 N 1028,3 -
15.10.2017 03:00:00 14,5 14,0 0 0 N 1028,7 -
15.10.2017 02:00:00 14,5 13,5 0 0 N 1028,6 0,0
15.10.2017 01:00:00 15,1 14,1 0 0 N 1028,6 -
15.10.2017 00:00:00 15,7 14,5 0 0 N 1028,6 -
14.10.2017 23:00:00 16,1 14,9 0 0 N 1028,6 -
14.10.2017 22:00:00 16,6 15,2 0 0 N 1028,5 -
14.10.2017 21:00:00 16,9 14,7 0 0 N 1028,3 -
14.10.2017 20:00:00 18,0 15,6 0 0 N 1027,6 0,0
14.10.2017 19:00:00 19,6 16,2 0 0 N 1027,0 -
14.10.2017 18:00:00 21,6 19,3 4 2 ONO 1026,7 -
14.10.2017 17:00:00 22,1 18,6 5 3 NNE 1026,7 -
14.10.2017 16:00:00 21,8 18,3 8 4 NNE 1026,7 -
14.10.2017 15:00:00 22,0 17,1 5 3 NNE 1027,0 -
14.10.2017 14:00:00 21,7 15,5 5 3 NNE 1027,5 0,0
14.10.2017 13:00:00 21,3 13,6 0 0 N 1028,1 -
14.10.2017 12:00:00 20,0 14,3 4 2 NNE 1028,5 -
14.10.2017 11:00:00 19,4 14,6 13 7 N 1028,3 -
14.10.2017 10:00:00 18,0 16,4 8 4 NO 1028,0 -
14.10.2017 09:00:00 15,3 14,9 0 0 N 1027,8 -

tt = Temperatura
td = dewpoint
ff = velocità del vento
dd = direzione del vento
ppp = reduced air pressure
rr = precipitazioni

Stazioni seguenti

WeatherPro
AMSI
MeteoEarth